Regional Weather Roundup
Issued by NWS

Home | Current Version | Previous Version | Text Only | Print | Product List | Glossary Off
Versions: 1 2 3 4 5 6 7 8 9 10 11 12 13 14 15 16 17 18 19 20 21 22 23 24 25 26 27 28 29 30 31 32 33 34 35 36 37 38 39 40 41 42 43 44 45 46 47 48 49 50

000
ASUS43 KOAX 260410
RWRNE

WEATHER ROUNDUP FOR NEBRASKA
NATIONAL WEATHER SERVICE OMAHA NE
1000 PM CST SUN JAN 25 2015

NOTES: SATELLITE DATA IS BEING USED TO AUGMENT CLOUD COVER ABOVE
       12000 FEET.
       "FAIR" INDICATES FEW OR NO CLOUDS BELOW 12,000 FEET WITH NO
       SIGNIFICANT WEATHER AND/OR OBSTRUCTIONS TO VISIBILITY.

  * THESE STATIONS DO NOT REPORT WEATHER SUCH AS RAIN...SNOW OR FOG.

NEZ001>004-019>022-054>056-260500-
NEBRASKA PANHANDLE

CITY           SKY/WX    TMP DP  RH WIND       PRES   REMARKS
SCOTTSBLUFF    PTCLDY    34  30  85 NW3       30.11S
ALLIANCE       CLEAR     36  31  82 W16       30.06S WCI  26
CHADRON        CLEAR     41  31  67 NW13      30.04S
KIMBALL        CLEAR     40  31  68 W13       30.14R WCI  33
SIDNEY         CLEAR     40  30  67 W13       30.13S WCI  32
$$

NEZ057>060-069>072-079>082-260500-
SOUTHWEST NEBRASKA

CITY           SKY/WX    TMP DP  RH WIND       PRES   REMARKS
NORTH PLATTE   CLOUDY    37  25  61 CALM      30.03F
IMPERIAL       CLOUDY    43  30  60 W10       30.07F
LEXINGTON      CLOUDY    36  30  79 S5        30.05F WCI  32
MCCOOK         CLOUDY    40  22  48 SW9       30.07F WCI  34
OGALLALA       MOCLDY    43  33  67 W12       30.06F
$$

NEZ005>010-023>029-035>040-094-260500-
NORTH CENTRAL NEBRASKA

CITY           SKY/WX    TMP DP  RH WIND       PRES   REMARKS
VALENTINE      CLEAR     33  26  75 SW7       29.96F WCI  27
AINSWORTH      PTCLDY    35  28  75 S9        29.96F WCI  28
BROKEN BOW     CLOUDY    33  28  81 CALM      30.02F
O`NEILL        CLOUDY    32  31  93 S7        29.99F WCI  26
ORD            MOCLDY    28  24  85 S7        30.02F WCI  21
THEDFORD       PTCLDY    38  28  68 CALM      30.00R
$$

NEZ041-046>049-061>064-073>077-083>087-260500-
SOUTH CENTRAL NEBRASKA

CITY           SKY/WX    TMP DP  RH WIND       PRES   REMARKS
GRAND ISLAND   CLEAR     28  25  88 SW7       30.06F WCI  21
AURORA         CLEAR     26  24  91 SW6       30.06S WCI  19
HASTINGS       CLEAR     27  22  81 SW3       30.06F
HEBRON         CLEAR     23  21  90 CALM      30.09F
HOLDREGE       CLOUDY    35  27  73 SW7       30.06F WCI  29
KEARNEY *      CLOUDY    32  27  80 SW7       30.06F WCI  26
YORK           MOCLDY    30  30 100 SW6       30.06S WCI  24
$$

NEZ011>018-030>034-042>045-260500-
NORTHEAST NEBRASKA

CITY           SKY/WX    TMP DP  RH WIND       PRES   REMARKS
NORFOLK        CLOUDY    32  30  92 CALM      30.02F
ALBION         CLOUDY    32  29  90 CALM      30.03S
BLAIR          MOCLDY    33  32  94 CALM      30.06S
COLUMBUS *     CLOUDY    27  21  80 CALM      30.07R
FREMONT        CLOUDY    33  32  96 CALM      30.06S
TEKAMAH        PTCLDY    31  29  92 SW6       30.07S WCI  25
WAYNE          CLOUDY    31  30  95 S5        30.03F WCI  26
$$

NEZ050>053-065>068-078-088>093-260500-
SOUTHEAST NEBRASKA

CITY           SKY/WX    TMP DP  RH WIND       PRES   REMARKS
LINCOLN        CLEAR     30  27  88 CALM      30.09S
OMAHA EPPLEY   CLOUDY    35  31  85 E3        30.08S
BEATRICE       CLEAR     28  27  96 CALM      30.08S
FALLS CITY     CLOUDY    32  28  85 SE3       30.10F
NEBRASKA CITY  CLOUDY    34  28  80 CALM      30.08S
PLATTSMOUTH    CLOUDY    34  31  87 W3        30.08R
$$

NEZ044-045-051>053-067-260500-
OMAHA AREA

CITY           SKY/WX    TMP DP  RH WIND       PRES   REMARKS
OMAHA EPPLEY   CLOUDY    35  31  85 E3        30.08S
BLAIR          MOCLDY    33  32  94 CALM      30.06S
FREMONT        CLOUDY    33  32  96 CALM      30.06S
MILLARD        MOCLDY    35  32  88 CALM      30.07F
OFFUTT AFB     CLOUDY    35  31  87 W1        30.08S
PLATTSMOUTH    CLOUDY    34  31  87 W3        30.08R
WAHOO          MOCLDY    31  28  91 CALM      30.07S
$$



USA.gov is the U.S. government's official web portal to all federal, state and local government web resources and services.